Showing default

OPS 9315 (IDSCS 5), 2219

Orbit data source: Space-Track

OPS 9315 (IDSCS 5), 2219 is a payload satellite owned by USAF SSD (US) in GEO that was launched on Thu, 16 Jun 1966 UTC via a TITAN IIIC launch vehicle from the Air Force Eastern Test Range (AFETR). Payloads include a variety of satellites, spacecraft, and rockets equipped with specific instruments for various scientific and technological missions. These include communications satellites like Starlink; space stations such as the ISS; scientific satellites like the Hubble; Earth observation satellites from companies like Planet Labs, Umbra, and HawkEye 360; GPS; miniature CubeSats for education and research; and military/defense satellites.

Not visible in the next 10 days
OPS 9315 (IDSCS 5) details
Identifier
2219, 1966-053F
Orbit
GEO
Last TLE update3 weeks ago
Origin
Flag of USUSAF SSD (US)
ManufacturerPhilco-Ford WDL
MissionNon-operational Defense Communications
Bus & MotorIDCSP, Unknown motor
Mass45 kg wet, 45 kg dry
Launch date (UTC)
1966-06-16 (59 years ago)
Launch vehicle
TITAN IIIC
Launch site
Air Force Eastern Test Range (AFETR)
Object type
Payload
Rocket body
Debris
Shape & HBRIco Poly, 0.9 m
Radar Cross Section0.926 m², Large (>1 m²)

Expand to show TLE details & history

TLE from 3 weeks ago
0 OPS 9315 (IDSCS 5)
1 02219U 66053F   24338.24521913 -.00000102  00000-0  00000-0 0  9995
2 02219   7.4893  50.3249 0053571 175.8314 184.0822  1.07399114 50500
Epoch: 2024-12-03T05:53Z
Definitive object data (Epoch: 2024-12-03T05:53:06.932Z)
Latitude0.00001°
Longitude-110.65852°
Altitude34,115.273 km
Speed3.129 km/s
True Right ascension03h 20m 42s
True Declination0° 00' 00"
Sunlit
Object was in daylight at TLE epoch
Visualization TLE readout
Latitude-6.45284°
Longitude127.92292°
Altitude33,799.36 km
Speed3.154 km/s
Apparent Right ascension19h 41m 19s
Apparent Declination-11° 42' 10"
Sunlit
Object is in daylight
Visualization observer readout
Local Sidereal Time12:16:45
Azimuth85.552° E
Elevation-23.642°
Doppler factor1
Orbital elements
Apogee altitude34,116.746 km
Perigee altitude33,685.188 km
Semi-major axis40,279.104 km
Eccentricity0.0053571
Inclination7.4893°
RAAN50.3249°
Arg. of periapsis175.8314°
True anomaly184.03879°
Mean anomaly184.0822°
Eccentric anomaly184.06047°
Mean motion0.26849 °/min
BSTARUnknown
Orbital period1340.85 mins
Loading historical data...
2219 neighbors
Authenticating...
Loading maneuver chart data...
Loading historical data...
Loading historical data...
Loading historical data...
Loading historical data...
Loading historical data...
Loading historical data...
Loading historical data...

OPS 9315 (IDSCS 5) Visibility forecast

Observer location: undefined°, undefined

OPS 9315 (IDSCS 5) is not visible in the next 10 days
Span
Click to sort rows by Start time (UTC) header in descending order
Start Az.
Max El. time (UTC)
Max El. Az.
Max El.
End time (UTC)
End Az.
|